Time,TemperatureF,DewpointF,PressureIn,WindDirection,WindDirectionDegrees,WindSpeedMPH,WindSpeedGustMPH,Humidity,HourlyPrecipIn,Conditions,Clouds,dailyrainin,SoftwareType,DateUTC
2013-03-07 00:12:00,26.4,11.6,29.37,North,-999,0.0,-999.0,53,-99.99,,,-99.99,Acu-Link.com,2013-03-07 07:12:00,
2013-03-07 00:28:00,26.8,11.6,29.37,North,-999,0.0,-999.0,52,-99.99,,,-99.99,Acu-Link.com,2013-03-07 07:28:00,
2013-03-07 00:43:00,27.0,11.7,29.37,North,-999,1.6,-999.0,52,-99.99,,,-99.99,Acu-Link.com,2013-03-07 07:43:00,
2013-03-07 00:58:00,27.9,11.7,29.37,North,-999,0.0,-999.0,50,-99.99,,,-99.99,Acu-Link.com,2013-03-07 07:58:00,
2013-03-07 01:13:00,27.1,11.0,29.37,North,-999,0.0,-999.0,50,-99.99,,,-99.99,Acu-Link.com,2013-03-07 08:13:00,
2013-03-07 01:28:00,27.2,11.5,29.37,North,-999,3.2,-999.0,51,-99.99,,,-99.99,Acu-Link.com,2013-03-07 08:28:00,
2013-03-07 01:44:00,27.5,11.8,29.37,North,-999,3.2,-999.0,51,-99.99,,,-99.99,Acu-Link.com,2013-03-07 08:44:00,
2013-03-07 01:59:00,28.3,12.5,29.36,North,-999,3.2,-999.0,51,-99.99,,,-99.99,Acu-Link.com,2013-03-07 08:59:00,
2013-03-07 02:14:00,28.4,12.6,29.36,North,-999,6.4,-999.0,51,-99.99,,,-99.99,Acu-Link.com,2013-03-07 09:14:00,
2013-03-07 02:29:00,28.8,12.5,29.36,North,-999,6.4,-999.0,50,-99.99,,,-99.99,Acu-Link.com,2013-03-07 09:29:00,
2013-03-07 02:44:00,28.0,12.2,29.35,North,-999,3.2,-999.0,51,-99.99,,,-99.99,Acu-Link.com,2013-03-07 09:44:00,
2013-03-07 03:00:00,28.3,13.0,29.36,North,-999,3.2,-999.0,52,-99.99,,,-99.99,Acu-Link.com,2013-03-07 10:00:00,
2013-03-07 03:15:00,27.9,12.6,29.36,North,-999,1.6,-999.0,52,-99.99,,,-99.99,Acu-Link.com,2013-03-07 10:15:00,
2013-03-07 03:30:00,27.4,13.0,29.35,North,-999,1.6,-999.0,54,-99.99,,,-99.99,Acu-Link.com,2013-03-07 10:30:00,
2013-03-07 03:46:00,27.4,13.0,29.36,North,-999,6.4,-999.0,54,-99.99,,,-99.99,Acu-Link.com,2013-03-07 10:46:00,
2013-03-07 04:01:00,27.4,13.0,29.36,North,-999,3.2,-999.0,54,-99.99,,,-99.99,Acu-Link.com,2013-03-07 11:01:00,
2013-03-07 04:16:00,27.3,12.9,29.37,North,-999,0.0,-999.0,54,-99.99,,,-99.99,Acu-Link.com,2013-03-07 11:16:00,
2013-03-07 04:31:00,27.0,13.0,29.37,North,-999,1.6,-999.0,55,-99.99,,,-99.99,Acu-Link.com,2013-03-07 11:31:00,
2013-03-07 04:46:00,26.9,12.9,29.38,North,-999,1.6,-999.0,55,-99.99,,,-99.99,Acu-Link.com,2013-03-07 11:46:00,
2013-03-07 05:02:00,27.1,13.1,29.38,North,-999,4.8,-999.0,55,-99.99,,,-99.99,Acu-Link.com,2013-03-07 12:02:00,
2013-03-07 05:17:00,27.4,13.0,29.39,North,-999,1.6,-999.0,54,-99.99,,,-99.99,Acu-Link.com,2013-03-07 12:17:00,
2013-03-07 05:32:00,27.8,13.3,29.39,North,-999,1.6,-999.0,54,-99.99,,,-99.99,Acu-Link.com,2013-03-07 12:32:00,
2013-03-07 05:47:00,27.8,13.3,29.39,North,-999,1.6,-999.0,54,-99.99,,,-99.99,Acu-Link.com,2013-03-07 12:47:00,
2013-03-07 06:03:00,28.0,13.5,29.40,North,-999,0.0,-999.0,54,-99.99,,,-99.99,Acu-Link.com,2013-03-07 13:03:00,
2013-03-07 06:18:00,27.7,13.3,29.41,North,-999,0.0,-999.0,54,-99.99,,,-99.99,Acu-Link.com,2013-03-07 13:18:00,
2013-03-07 06:33:00,27.2,13.2,29.42,North,-999,1.6,-999.0,55,-99.99,,,-99.99,Acu-Link.com,2013-03-07 13:33:00,
2013-03-07 06:49:00,27.0,13.8,29.42,North,-999,1.6,-999.0,57,-99.99,,,-99.99,Acu-Link.com,2013-03-07 13:49:00,
2013-03-07 07:04:00,27.6,14.4,29.42,North,-999,1.6,-999.0,57,-99.99,,,-99.99,Acu-Link.com,2013-03-07 14:04:00,
2013-03-07 07:19:00,28.2,14.5,29.43,North,-999,3.2,-999.0,56,-99.99,,,-99.99,Acu-Link.com,2013-03-07 14:19:00,
2013-03-07 07:34:00,30.0,15.8,29.43,North,-999,3.2,-999.0,55,-99.99,,,-99.99,Acu-Link.com,2013-03-07 14:34:00,
2013-03-07 07:50:00,31.0,16.3,29.43,North,-999,1.6,-999.0,54,-99.99,,,-99.99,Acu-Link.com,2013-03-07 14:50:00,
2013-03-07 08:05:00,32.8,17.1,29.42,North,-999,3.2,-999.0,52,-99.99,,,-99.99,Acu-Link.com,2013-03-07 15:05:00,
2013-03-07 08:20:00,37.2,19.8,29.42,North,-999,0.0,-999.0,49,-99.99,,,-99.99,Acu-Link.com,2013-03-07 15:20:00,
2013-03-07 08:35:00,39.4,19.8,29.42,North,-999,3.2,-999.0,45,-99.99,,,-99.99,Acu-Link.com,2013-03-07 15:35:00,
2013-03-07 08:50:00,40.4,19.1,29.42,North,-999,8.0,-999.0,42,-99.99,,,-99.99,Acu-Link.com,2013-03-07 15:50:00,
2013-03-07 09:06:00,42.9,20.3,29.43,North,-999,19.3,-999.0,40,-99.99,,,-99.99,Acu-Link.com,2013-03-07 16:06:00,
2013-03-07 09:21:00,46.9,22.6,29.42,North,-999,9.6,-999.0,38,-99.99,,,-99.99,Acu-Link.com,2013-03-07 16:21:00,
2013-03-07 09:36:00,47.5,21.2,29.42,North,-999,9.6,-999.0,35,-99.99,,,-99.99,Acu-Link.com,2013-03-07 16:36:00,
2013-03-07 09:51:00,50.5,21.0,29.43,North,-999,9.6,-999.0,31,-99.99,,,-99.99,Acu-Link.com,2013-03-07 16:51:00,
2013-03-07 10:06:00,52.2,20.9,29.44,North,-999,9.6,-999.0,29,-99.99,,,-99.99,Acu-Link.com,2013-03-07 17:06:00,
2013-03-07 10:22:00,51.7,18.8,29.43,North,-999,8.0,-999.0,27,-99.99,,,-99.99,Acu-Link.com,2013-03-07 17:22:00,
2013-03-07 10:37:00,48.5,17.7,29.44,North,-999,9.6,-999.0,29,-99.99,,,-99.99,Acu-Link.com,2013-03-07 17:37:00,
2013-03-07 10:52:00,51.0,20.7,29.44,North,-999,6.4,-999.0,30,-99.99,,,-99.99,Acu-Link.com,2013-03-07 17:52:00,
2013-03-07 11:07:00,54.8,18.7,29.43,North,-999,9.6,-999.0,24,-99.99,,,-99.99,Acu-Link.com,2013-03-07 18:07:00,
2013-03-07 11:23:00,51.1,17.4,29.43,North,-999,11.2,-999.0,26,-99.99,,,-99.99,Acu-Link.com,2013-03-07 18:23:00,
2013-03-07 11:38:00,52.2,17.5,29.43,North,-999,4.8,-999.0,25,-99.99,,,-99.99,Acu-Link.com,2013-03-07 18:38:00,
2013-03-07 11:53:00,53.0,17.2,29.43,North,-999,3.2,-999.0,24,-99.99,,,-99.99,Acu-Link.com,2013-03-07 18:53:00,
2013-03-07 12:08:00,52.6,16.9,29.44,North,-999,8.0,-999.0,24,-99.99,,,-99.99,Acu-Link.com,2013-03-07 19:08:00,
2013-03-07 12:24:00,53.2,18.3,29.44,North,-999,8.0,-999.0,25,-99.99,,,-99.99,Acu-Link.com,2013-03-07 19:24:00,
2013-03-07 12:39:00,53.6,18.6,29.45,North,-999,11.2,-999.0,25,-99.99,,,-99.99,Acu-Link.com,2013-03-07 19:39:00,
2013-03-07 12:54:00,56.0,20.7,29.45,North,-999,1.6,-999.0,25,-99.99,,,-99.99,Acu-Link.com,2013-03-07 19:54:00,
2013-03-07 13:10:00,57.7,20.2,29.45,North,-999,9.6,-999.0,23,-99.99,,,-99.99,Acu-Link.com,2013-03-07 20:10:00,
2013-03-07 13:25:00,56.9,19.5,29.44,North,-999,8.0,-999.0,23,-99.99,,,-99.99,Acu-Link.com,2013-03-07 20:25:00,
2013-03-07 13:41:00,50.8,17.2,29.45,North,-999,9.6,-999.0,26,-99.99,,,-99.99,Acu-Link.com,2013-03-07 20:41:00,
2013-03-07 13:56:00,42.9,16.5,29.44,North,-999,3.2,-999.0,34,-99.99,,,-99.99,Acu-Link.com,2013-03-07 20:56:00,
2013-03-07 14:11:00,41.2,16.9,29.44,North,-999,6.4,-999.0,37,-99.99,,,-99.99,Acu-Link.com,2013-03-07 21:11:00,
2013-03-07 14:27:00,40.9,16.0,29.44,North,-999,4.8,-999.0,36,-99.99,,,-99.99,Acu-Link.com,2013-03-07 21:27:00,
2013-03-07 14:57:00,42.3,16.6,29.45,North,-999,1.6,-999.0,35,-99.99,,,-99.99,Acu-Link.com,2013-03-07 21:57:00,
2013-03-07 15:12:00,45.4,17.3,29.44,North,-999,4.8,-999.0,32,-99.99,,,-99.99,Acu-Link.com,2013-03-07 22:12:00,
2013-03-07 15:28:00,48.2,17.5,29.45,North,-999,4.8,-999.0,29,-99.99,,,-99.99,Acu-Link.com,2013-03-07 22:28:00,
2013-03-07 15:43:00,48.9,17.2,29.44,North,-999,14.5,-999.0,28,-99.99,,,-99.99,Acu-Link.com,2013-03-07 22:43:00,
2013-03-07 15:58:00,47.7,16.2,29.45,North,-999,11.2,-999.0,28,-99.99,,,-99.99,Acu-Link.com,2013-03-07 22:58:00,
2013-03-07 16:13:00,45.2,15.6,29.45,North,-999,4.8,-999.0,30,-99.99,,,-99.99,Acu-Link.com,2013-03-07 23:13:00,
2013-03-07 16:29:00,42.5,14.0,29.45,North,-999,9.6,-999.0,31,-99.99,,,-99.99,Acu-Link.com,2013-03-07 23:29:00,
2013-03-07 16:44:00,41.5,15.3,29.45,North,-999,1.6,-999.0,34,-99.99,,,-99.99,Acu-Link.com,2013-03-07 23:44:00,
2013-03-07 16:59:00,40.6,15.8,29.46,North,-999,1.6,-999.0,36,-99.99,,,-99.99,Acu-Link.com,2013-03-07 23:59:00,
2013-03-07 17:29:00,38.0,15.3,29.46,North,-999,0.0,-999.0,39,-99.99,,,-99.99,Acu-Link.com,2013-03-08 00:29:00,
2013-03-07 17:45:00,36.5,14.5,29.46,North,-999,0.0,-999.0,40,-99.99,,,-99.99,Acu-Link.com,2013-03-08 00:45:00,
2013-03-07 18:00:00,34.4,12.6,29.46,North,-999,0.0,-999.0,40,-99.99,,,-99.99,Acu-Link.com,2013-03-08 01:00:00,
2013-03-07 18:15:00,32.5,13.5,29.47,North,-999,0.0,-999.0,45,-99.99,,,-99.99,Acu-Link.com,2013-03-08 01:15:00,
2013-03-07 18:30:00,30.6,12.3,29.47,North,-999,0.0,-999.0,46,-99.99,,,-99.99,Acu-Link.com,2013-03-08 01:30:00,
2013-03-07 18:46:00,29.9,11.2,29.47,North,-999,0.0,-999.0,45,-99.99,,,-99.99,Acu-Link.com,2013-03-08 01:46:00,
2013-03-07 19:01:00,28.3,10.7,29.47,North,-999,0.0,-999.0,47,-99.99,,,-99.99,Acu-Link.com,2013-03-08 02:01:00,
2013-03-07 19:31:00,27.0,10.4,29.47,North,-999,1.6,-999.0,49,-99.99,,,-99.99,Acu-Link.com,2013-03-08 02:31:00,
2013-03-07 19:47:00,26.9,10.8,29.47,North,-999,1.6,-999.0,50,-99.99,,,-99.99,Acu-Link.com,2013-03-08 02:47:00,
2013-03-07 20:02:00,27.0,10.9,29.47,North,-999,0.0,-999.0,50,-99.99,,,-99.99,Acu-Link.com,2013-03-08 03:02:00,
2013-03-07 20:18:00,26.7,11.0,29.47,North,-999,0.0,-999.0,51,-99.99,,,-99.99,Acu-Link.com,2013-03-08 03:18:00,
2013-03-07 20:33:00,26.5,10.8,29.47,North,-999,1.6,-999.0,51,-99.99,,,-99.99,Acu-Link.com,2013-03-08 03:33:00,
2013-03-07 20:48:00,26.9,10.3,29.47,North,-999,0.0,-999.0,49,-99.99,,,-99.99,Acu-Link.com,2013-03-08 03:48:00,
2013-03-07 21:03:00,26.7,8.7,29.47,North,-999,0.0,-999.0,46,-99.99,,,-99.99,Acu-Link.com,2013-03-08 04:03:00,
2013-03-07 21:19:00,27.0,8.0,29.47,North,-999,0.0,-999.0,44,-99.99,,,-99.99,Acu-Link.com,2013-03-08 04:19:00,
2013-03-07 21:34:00,26.6,8.2,29.47,North,-999,0.0,-999.0,45,-99.99,,,-99.99,Acu-Link.com,2013-03-08 04:34:00,
2013-03-07 21:50:00,26.5,7.6,29.48,North,-999,0.0,-999.0,44,-99.99,,,-99.99,Acu-Link.com,2013-03-08 04:50:00,
2013-03-07 22:05:00,26.6,7.7,29.48,North,-999,0.0,-999.0,44,-99.99,,,-99.99,Acu-Link.com,2013-03-08 05:05:00,
2013-03-07 22:20:00,26.6,7.2,29.48,North,-999,1.6,-999.0,43,-99.99,,,-99.99,Acu-Link.com,2013-03-08 05:20:00,
2013-03-07 22:35:00,26.9,6.9,29.48,North,-999,1.6,-999.0,42,-99.99,,,-99.99,Acu-Link.com,2013-03-08 05:35:00,
2013-03-07 22:50:00,26.8,6.8,29.47,North,-999,1.6,-999.0,42,-99.99,,,-99.99,Acu-Link.com,2013-03-08 05:50:00,
2013-03-07 23:06:00,26.2,6.3,29.47,North,-999,0.0,-999.0,42,-99.99,,,-99.99,Acu-Link.com,2013-03-08 06:06:00,
2013-03-07 23:21:00,25.7,6.3,29.47,North,-999,0.0,-999.0,43,-99.99,,,-99.99,Acu-Link.com,2013-03-08 06:21:00,
2013-03-07 23:36:00,24.8,6.0,29.46,North,-999,0.0,-999.0,44,-99.99,,,-99.99,Acu-Link.com,2013-03-08 06:36:00,
2013-03-07 23:52:00,24.4,6.1,29.47,North,-999,0.0,-999.0,45,-99.99,,,-99.99,Acu-Link.com,2013-03-08 06:52:00,